Location: Unspecified
(48.5670°N, 0.0000°E)
Time: 08:38:32
(UTC+00:00)

Transit 4A - Pass Details

Date: 30 August 2019
Orbit: 865 x 980 km, 66.8° (Epoch: 18 September)

Event Time Altitude Azimuth Distance (km) Brightness Sun altitude
Rises 00:22:58 0° 325° (NW) 3,646 11.6 -32.1°
Reaches altitude 10° 00:25:37 10° 329° (NNW) 2,681 10.9 -32.0°
Maximum altitude 00:31:47 59° 49° (NE) 1,064 8.3 -31.9°
Enters shadow 00:31:58 59° 57° (ENE) 1,066 8.2 -31.9°
